Weather History for Indian Springs, NV

Change the Weather History Date:

Thursday, December 20, 2012

  Actual Average (KDRA) Record (KDRA)
Temperature  
Mean Temperature 31 °F -  
Max Temperature 40 °F 51 °F 63 °F (1999)
Min Temperature 22 °F 31 °F 21 °F (2006)
Degree Days  
Heating Degree Days 34    
Moisture  
Dew Point 14 °F    
Average Humidity 53    
Maximum Humidity 75    
Minimum Humidity 27    
Precipitation  
Precipitation 0.00 in - - ()
Sea Level Pressure  
Sea Level Pressure 30.31 in    
Wind  
Wind Speed 3 mph (NNW)    
Max Wind Speed 13 mph    
Max Gust Speed -    
Visibility 10 miles    
Events      
Averages and records for this station are not official NWS values.
T = Trace of Precipitation, MM = Missing Value Source: NWS Daily Summary

Daily Weather History Graph

Daily Weather History Graph

Search for Another Location

Airport:

Trip Planner

Search our weather history database for the weather conditions in past years. The results will help you decide how hot, cold, wet, or windy it might be!

Date:

Astronomy

Dec. 20, 2012 Rise Set
Actual Time 6:50 AM PST 4:30 PM PST
Civil Twilight 6:21 AM PST 4:59 PM PST
Nautical Twilight 5:49 AM PST 5:31 PM PST
Astronomical Twilight 5:18 AM PST 6:03 PM PST
Moon 11:42 AM PST (12/20) No Moon Set
Length of Visible Light 10h 37m
Length of Day
9h 39m
First Quarter, 56% of the Moon is Illuminated
Dec 20
First Quarter
Dec 28
Full
Jan 4
Last Quarter
Jan 11
New
Jan 18
First Quarter

Hourly Weather History & Observations

Time (PST) Temp. Windchill Dew Point Humidity Pressure Visibility Wind Dir Wind Speed Gust Speed Precip Events Conditions
12:58 AM 27.5 °F - 15.6 °F 61% 30.38 in 10.0 mi Calm Calm - N/A   Clear
1:58 AM 26.6 °F - 16.2 °F 65% 30.38 in 10.0 mi West 2.3 mph - N/A   Clear
2:58 AM 24.6 °F - 15.4 °F 68% 30.37 in 10.0 mi Variable 2.3 mph - N/A   Clear
3:58 AM 24.4 °F - 14.9 °F 67% 30.36 in 10.0 mi NNE 1.2 mph - N/A   Clear
4:58 AM 23.4 °F - 16.3 °F 75% 30.35 in 10.0 mi NE 2.3 mph - N/A   Clear
5:58 AM 22.8 °F - 15.3 °F 73% 30.35 in 10.0 mi NNW 1.2 mph - N/A   Clear
6:58 AM 22.3 °F 17.6 °F 15.3 °F 74% 30.36 in 10.0 mi SW 3.5 mph - N/A   Clear
7:58 AM 25.9 °F - 14.4 °F 62% 30.37 in 10.0 mi West 2.3 mph - N/A   Clear
8:58 AM 27.1 °F - 16.2 °F 63% 30.37 in 10.0 mi North 2.3 mph - N/A   Clear
9:58 AM 32.7 °F - 14.0 °F 46% 30.38 in 10.0 mi NNE 2.3 mph - N/A   Clear
10:58 AM 34.2 °F - 10.8 °F 38% 30.37 in 10.0 mi Calm Calm - N/A   Clear
11:58 AM 36.3 °F - 9.0 °F 32% 30.34 in 10.0 mi Calm Calm - N/A   Clear
12:58 PM 39.4 °F 37.2 °F 9.1 °F 29% 30.30 in 10.0 mi NE 3.5 mph - N/A   Clear
1:58 PM 39.9 °F 35.8 °F 10.2 °F 30% 30.27 in 10.0 mi NE 5.8 mph - N/A   Unknown
2:58 PM 40.8 °F 33.7 °F 9.3 °F 27% 30.25 in 10.0 mi East 12.7 mph - N/A   Clear
3:58 PM 39.9 °F 34.5 °F 11.7 °F 31% 30.24 in 10.0 mi ENE 8.1 mph - N/A   Clear
4:58 PM 38.1 °F 32.3 °F 11.1 °F 33% 30.24 in 10.0 mi NE 8.1 mph - N/A   Clear
5:58 PM 35.8 °F 31.9 °F 13.6 °F 40% 30.24 in 10.0 mi SE 4.6 mph - N/A   Clear
6:58 PM 33.1 °F - 17.1 °F 52% 30.24 in 10.0 mi Calm Calm - N/A   Clear
7:58 PM 32.7 °F - 14.7 °F 48% 30.24 in 10.0 mi WSW 1.2 mph - N/A   Clear
8:58 PM 29.5 °F - 16.7 °F 59% 30.24 in 10.0 mi SSW 1.2 mph - N/A   Clear
9:58 PM 28.9 °F 21.9 °F 17.6 °F 63% 30.24 in 10.0 mi West 6.9 mph - N/A   Clear
10:58 PM 27.5 °F 19.3 °F 17.1 °F 65% 30.23 in 10.0 mi WSW 8.1 mph - N/A   Clear
11:58 PM 26.2 °F 19.6 °F 18.0 °F 71% 30.22 in 10.0 mi WSW 5.8 mph - N/A   Clear